Location: Liberec
(50.7830°N, 15.0500°E)
Time: 18:34:52
(UTC+02:00)

ISS - Pass Details

Date: 21 May 2021
Orbit: 417 x 422 km, 51.6° (Epoch: 16 June)

Event Time Altitude Azimuth Distance (km) Brightness Sun altitude
Rises 22:07:57 0° 267° (W) 2,363 0.6 -9.8°
Reaches altitude 10° 22:10:03 10° 269° (W) 1,501 -0.4 -10.0°
Maximum altitude 22:13:25 76° 355° (N) 438 -3.6 -10.3°
Drops below altitude 10° 22:16:48 10° 83° (E) 1,505 -1.2 -10.7°
Enters shadow 22:18:23 - 84° (E) 2,156 -0.5 -10.8°
